IQ1LY-3 Weather Reports


time (UTC)temp
C
wind
direction
speed
KPH
gust
KPH
rain 1hr
cm
rain 24hr
cm
rain mn
cm
humidity
%
barometer
mb
20260508011049 12 315 0.0 0.0 0.00 0.00 0.00 89 1012.5
20260508010048 12 293 0.0 0.0 0.00 0.00 0.00 89 1012.5
20260508004944 13 270 0.0 0.0 0.00 0.00 0.00 89 1012.5
20260508003912 13 248 0.0 0.0 0.00 0.00 0.00 89 1012.9
20260508002912 13 270 0.0 0.0 0.00 0.00 0.00 89 1012.9
20260508001911 13 270 0.0 0.0 0.00 0.00 0.00 89 1013.2
20260508000910 13 293 0.0 0.0 0.00 0.00 0.00 89 1013.2
20260507235909 13 293 0.0 0.0 0.00 0.00 0.00 89 1013.2
20260507234908 13 270 0.0 0.0 0.00 0.00 0.00 89 1013.2
20260507233907 13 270 0.0 0.0 0.00 0.00 0.00 88 1013.5
20260507232907 13 270 0.0 0.0 0.00 0.00 0.00 88 1013.9
20260507231906 13 270 0.0 0.0 0.00 0.00 0.00 88 1013.9
20260507230905 13 270 0.0 0.0 0.00 0.00 0.00 88 1013.9
20260507225904 13 270 0.0 0.0 0.00 0.00 0.00 88 1013.9
20260507224903 13 270 0.0 0.0 0.00 0.00 0.00 88 1013.9
20260507223902 14 270 0.0 0.0 0.00 0.00 0.00 88 1013.9
20260507222901 14 270 0.0 0.0 0.00 0.00 0.00 88 1013.9
20260507221900 14 270 0.0 0.0 0.00 0.00 0.00 87 1013.9
20260507220900 14 270 0.0 0.0 0.00 0.00 0.00 88 1013.9
20260507215859 14 270 0.0 0.0 0.00 0.00 0.00 87 1013.9
20260507214859 14 270 0.0 0.0 0.00 0.00 0.00 87 1013.9
20260507213827 14 270 0.0 0.0 0.00 0.00 0.00 87 1013.9
20260507212826 14 270 0.0 0.0 0.00 0.00 0.00 86 1013.9
20260507211825 14 270 0.0 0.0 0.00 0.00 0.00 86 1013.9
20260507205824 15 293 0.0 0.0 0.00 0.00 0.00 86 1013.5
20260507204824 15 293 0.0 0.0 0.00 0.00 0.00 86 1013.2
20260507203823 15 293 0.0 0.0 0.00 0.00 0.00 86 1013.5
20260507202822 15 293 0.0 0.0 0.00 0.00 0.00 85 1013.5
20260507201821 15 293 0.0 0.0 0.00 0.00 0.00 85 1013.5
20260507200820 15 293 0.0 0.0 0.00 0.00 0.00 84 1013.5
20260507195820 15 315 0.0 0.0 0.00 0.00 0.00 84 1013.2
20260507194819 15 315 0.0 0.0 0.00 0.00 0.00 83 1013.2
20260507193746 15 90 0.0 0.0 0.00 0.00 0.00 82 1012.9
20260507192745 16 90 0.0 0.0 0.00 0.00 0.00 82 1012.9
20260507191611 16 90 0.0 0.0 0.00 0.00 0.00 81 1012.9
20260507190611 16 158 0.0 0.0 0.00 0.00 0.00 81 1012.9
20260507185610 16 135 0.0 0.0 0.00 0.00 0.00 80 1012.9
20260507184609 16 293 0.0 0.0 0.00 0.00 0.00 79 1012.9
20260507183506 17 90 0.0 0.0 0.00 0.00 0.00 79 1012.9
20260507182506 17 45 0.0 0.0 0.00 0.00 0.00 78 1012.9
20260507181434 17 135 0.0 0.0 0.00 0.00 0.00 78 1012.9
20260507180434 17 113 0.0 0.0 0.00 0.00 0.00 78 1012.5
20260507175433 17 45 0.0 0.0 0.00 0.00 0.00 77 1012.5
20260507174432 17 68 0.0 0.0 0.00 0.00 0.00 77 1012.5
20260507173431 17 158 0.0 0.0 0.00 0.00 0.00 77 1012.5
20260507170754 18 225 0.0 0.0 0.00 0.00 0.00 76 1012.5
20260507165753 18 45 0.0 0.0 0.00 0.00 0.00 76 1012.5
20260507164753 18 113 0.0 0.0 0.00 0.00 0.00 75 1012.5
20260507163751 18 158 0.0 0.0 0.00 0.00 0.00 74 1012.5
20260507162649 18 158 0.0 0.0 0.00 0.00 0.00 73 1012.5
20260507161648 19 158 0.0 3.2 0.00 0.00 0.00 73 1012.5
20260507160616 19 180 3.2 3.2 0.00 0.00 0.00 72 1012.5
20260507155615 19 135 0.0 3.2 0.00 0.00 0.00 72 1012.5
20260507154614 19 135 0.0 0.0 0.00 0.00 0.00 72 1012.2
20260507153613 20 135 6.4 6.4 0.00 0.00 0.00 72 1012.5
20260507152612 19 113 0.0 0.0 0.00 0.00 0.00 72 1012.5
20260507151611 19 180 0.0 1.6 0.00 0.00 0.00 72 1012.5
20260507150611 19 113 0.0 0.0 0.00 0.00 0.00 71 1012.5
20260507145610 19 158 4.8 4.8 0.00 0.00 0.00 71 1012.5
20260507144609 20 23 0.0 0.0 0.00 0.00 0.00 69 1012.9
20260507143608 20 180 0.0 0.0 0.00 0.00 0.00 70 1012.9
20260507142607 20 90 0.0 3.2 0.00 0.00 0.00 69 1012.5
20260507141605 20 135 0.0 3.2 0.00 0.00 0.00 69 1012.5
20260507140605 19 90 3.2 3.2 0.00 0.00 0.00 70 1012.9
20260507135604 19 113 0.0 6.4 0.00 0.00 0.00 69 1012.9
20260507134603 20 158 6.4 6.4 0.00 0.00 0.00 68 1013.2
20260507133602 21 180 0.0 4.8 0.00 0.00 0.00 67 1013.2
20260507132601 21 135 4.8 6.4 0.00 0.00 0.00 67 1013.2
20260507131600 20 158 6.4 11.3 0.00 0.00 0.00 69 1013.2
20260507130559 20 58 6.4 8.0 0.00 0.00 0.00 69 1013.2
20260507124436 21 158 6.4 6.4 0.00 0.00 0.00 68 1012.9
20260507123434 21 148 8.0 9.7 0.00 0.00 0.00 68 1012.9
20260507122433 20 203 0.0 6.4 0.00 0.00 0.00 69 1012.9
20260507121432 20 90 8.0 8.0 0.00 0.00 0.00 69 1012.5
20260507120431 20 135 4.8 6.4 0.00 0.00 0.00 68 1012.9
20260507115359 20 165 3.2 8.0 0.00 0.00 0.00 69 1012.9
20260507114358 21 158 3.2 3.2 0.00 0.00 0.00 69 1012.9
20260507113358 20 113 0.0 3.2 0.00 0.00 0.00 70 1012.9
20260507112357 20 90 8.0 8.0 0.00 0.00 0.00 70 1012.9
20260507111356 20 113 0.0 14.5 0.00 0.00 0.00 70 1012.9
20260507110355 20 158 14.5 14.5 0.00 0.00 0.00 71 1012.9
20260507105354 20 119 6.4 9.7 0.00 0.00 0.00 70 1012.9
20260507104323 20 68 4.8 6.4 0.00 0.00 0.00 70 1012.9
20260507103322 20 68 4.8 6.4 0.00 0.00 0.00 70 1012.9
20260507102249 20 135 4.8 17.7 0.00 0.00 0.00 70 1012.9
20260507101249 20 52 9.7 12.9 0.00 0.00 0.00 71 1012.9
20260507100144 20 113 3.2 6.4 0.00 0.00 0.00 71 1012.9
20260507095113 20 135 6.4 8.0 0.00 0.00 0.00 71 1012.9
20260507094112 20 113 3.2 12.9 0.00 0.00 0.00 70 1012.9
20260507093111 21 98 3.2 4.8 0.00 0.00 0.00 70 1012.9
20260507092109 20 68 3.2 3.2 0.00 0.00 0.00 69 1012.9
20260507091109 20 90 1.6 1.6 0.00 0.00 0.00 70 1012.9
20260507090108 20 158 9.7 9.7 0.00 0.00 0.00 70 1012.5
20260507085107 20 83 3.2 6.4 0.00 0.00 0.00 69 1012.5
20260507084106 20 113 0.0 8.0 0.00 0.00 0.00 69 1012.5
20260507083105 20 135 8.0 8.0 0.00 0.00 0.00 68 1012.2
20260507082104 20 54 3.2 4.8 0.00 0.00 0.00 67 1012.2
20260507081103 20 90 0.0 0.0 0.00 0.00 0.00 68 1012.2
20260507075102 20 113 0.0 0.0 0.00 0.00 0.00 67 1012.2
20260507072537 19 90 0.0 0.0 0.00 0.00 0.00 72 1012.2
20260507071536 19 113 0.0 0.0 0.00 0.00 0.00 73 1011.9
20260507070535 18 158 0.0 0.0 0.00 0.00 0.00 74 1012.2
20260507065534 18 158 0.0 0.0 0.00 0.00 0.00 75 1011.9
20260507064533 18 135 0.0 0.0 0.00 0.00 0.00 77 1011.9
20260507063533 17 135 0.0 1.6 0.00 0.00 0.00 78 1011.5
20260507062532 17 270 0.0 0.0 0.00 0.00 0.00 80 1011.5
20260507061500 16 293 0.0 0.0 0.00 0.00 0.00 83 1011.5
20260507060459 15 203 0.0 0.0 0.00 0.00 0.00 86 1011.5
20260507054021 12 270 0.0 0.0 0.00 0.00 0.00 88 1011.2
20260507053020 12 270 0.0 0.0 0.00 0.00 0.00 88 1011.2
20260507052019 12 270 0.0 0.0 0.00 0.00 0.00 88 1011.2
20260507051018 12 338 0.0 0.0 0.00 0.00 0.00 88 1010.8
20260507050017 12 270 0.0 0.0 0.00 0.00 0.00 88 1010.8
20260507045016 11 23 0.0 0.0 0.00 0.00 0.00 88 1010.8
20260507044015 11 270 0.0 0.0 0.00 0.00 0.00 88 1010.8
20260507043014 11 270 0.0 0.0 0.00 0.00 0.00 88 1010.5
20260507042013 11 338 0.0 0.0 0.00 0.00 0.00 88 1010.5
20260507041012 11 158 0.0 0.0 0.00 0.00 0.00 88 1010.5
20260507040011 11 270 0.0 0.0 0.00 0.00 0.00 88 1010.5
20260507034939 11 68 0.0 0.0 0.00 0.00 0.00 88 1010.5
20260507033906 11 270 0.0 0.0 0.00 0.00 0.00 89 1010.5
20260507032906 11 248 0.0 0.0 0.00 0.00 0.00 89 1010.5
20260507031905 11 203 0.0 0.0 0.00 0.00 0.00 89 1010.5
20260507030905 11 270 0.0 0.0 0.00 0.00 0.00 89 1010.5
20260507025904 11 293 0.0 0.0 0.00 0.00 0.00 89 1010.5
20260507024903 11 315 0.0 0.0 0.00 0.00 0.00 89 1010.5
20260507023902 11 293 0.0 0.0 0.00 0.00 0.00 89 1010.2
20260507022758 11 270 0.0 0.0 0.00 0.00 0.00 89 1010.2
20260507021758 11 248 0.0 0.0 0.00 0.00 0.00 89 1010.2
20260507020757 11 270 0.0 0.0 0.00 0.00 0.00 89 1010.2
20260507015756 11 315 0.0 0.0 0.00 0.00 0.00 89 1010.2
20260507014756 11 338 0.0 0.0 0.00 0.00 0.00 89 1009.8
20260507013755 11 225 0.0 0.0 0.00 0.00 0.00 89 1010.2
20260507012753 11 23 0.0 0.0 0.00 0.00 0.00 89 1009.8